Location: Kershaw
(34.5481°N, 80.5823°W)
Time: 19:16:38
(UTC+00:00)

Transit 4A - Pass Details

Date: 04 October 2022
Orbit: 871 x 972 km, 66.8° (Epoch: 01 December)

Event Time Altitude Azimuth Distance (km) Brightness Sun altitude
Rises 12:39:06 0° 329° (NNW) 3,475 10.5 15.3°
Reaches altitude 10° 12:41:36 10° 327° (NNW) 2,527 9.8 15.8°
Maximum altitude 12:47:21 63° 247° (WSW) 965 8.1 16.9°
Drops below altitude 10° 12:53:04 10° 167° (SSE) 2,515 10.7 18.0°
Sets 12:55:34 0° 164° (SSE) 3,457 11.4 18.5°
